Voltar ao catálogo

FENGYUN 1C DEB

AtivoSSO
NORAD 30471·DEBRIS·🇨🇳 China

Lançado May 10, 1999 de Taiyuan Satellite Launch Center

Loading…

Próximas Passagens (próximas 24 horas)

TLE

AtualizadoSource: Space-Track

Época: Sep 14, 2026, 05:35 UTC

1 30471U 99025AGJ 26257.23331162  .00001760  00000-0  90288-3 0  9997
2 30471  99.0505 353.4858 0081500 195.8308 193.2398 14.15046958  3279

Acompanhe FENGYUN 1C DEB em tempo real com AllMySat

Download on the App Store